KE7JVX-3 Weather Reports


Display with metric or nautical units.
time (UTC)temp
F
wind
direction
speed
MPH
gust
MPH
rain 1hr
in
rain 24hr
in
rain mn
in
humidity
%
barometer
mb
20260906194724 68 299 5.0 12.0 0.00 0.00 0.00 37 1016.0
20260906170206 64 178 1.0 5.0 0.00 0.00 0.00 42 1016.6
20260906165206 63 253 1.0 7.0 0.00 0.00 0.00 46 1016.7
20260906164206 63 248 2.0 8.0 0.00 0.00 0.00 44 1016.7
20260906163206 63 249 1.0 7.0 0.00 0.00 0.00 45 1016.6
20260906162206 64 248 3.0 7.0 0.00 0.00 0.00 42 1016.5
20260906161206 64 226 2.0 5.0 0.00 0.00 0.00 42 1016.5
20260906160206 64 187 1.0 6.0 0.00 0.00 0.00 43 1016.5
20260906155206 63 0 0.0 3.0 0.00 0.00 0.00 42 1016.5
20260906154206 64 0 0.0 2.0 0.00 0.00 0.00 41 1016.5
20260906153206 63 0 0.0 3.0 0.00 0.00 0.00 41 1016.5
20260906152211 64 332 1.0 3.0 0.00 0.00 0.00 38 1016.5
20260906151206 65 0 0.0 2.0 0.00 0.00 0.00 37 1016.5
20260906150206 64 0 0.0 0.0 0.00 0.00 0.00 36 1016.5
20260906145209 64 0 0.0 2.0 0.00 0.00 0.00 36 1016.5
20260906144207 63 0 0.0 3.0 0.00 0.00 0.00 34 1016.5
20260906143206 62 0 0.0 3.0 0.00 0.00 0.00 35 1016.4
20260906142206 63 0 0.0 2.0 0.00 0.00 0.00 33 1016.4
20260906141206 63 0 0.0 2.0 0.00 0.00 0.00 32 1016.3
20260906140206 63 0 0.0 2.0 0.00 0.00 0.00 32 1016.2
20260906135206 62 0 0.0 0.0 0.00 0.00 0.00 31 1016.1
20260906134206 62 0 0.0 1.0 0.00 0.00 0.00 33 1016.1
20260906133206 61 0 0.0 2.0 0.00 0.00 0.00 35 1016.0
20260906132206 61 0 0.0 0.0 0.00 0.00 0.00 36 1015.9
20260906131206 60 0 0.0 0.0 0.00 0.00 0.00 37 1015.9
20260906130206 60 0 0.0 0.0 0.00 0.00 0.00 37 1015.8
20260906125205 60 0 0.0 3.0 0.00 0.00 0.00 37 1015.8
20260906124205 60 0 0.0 3.0 0.00 0.00 0.00 37 1015.7
20260906123205 61 0 0.0 3.0 0.00 0.00 0.00 36 1015.7
20260906122206 61 0 0.0 0.0 0.00 0.00 0.00 35 1015.7
20260906121206 61 0 0.0 3.0 0.00 0.00 0.00 35 1015.7
20260906120206 61 332 1.0 4.0 0.00 0.00 0.00 35 1015.5
20260906115207 61 332 1.0 2.0 0.00 0.00 0.00 34 1015.6
20260906114205 61 0 0.0 0.0 0.00 0.00 0.00 33 1015.7
20260906113205 61 0 0.0 3.0 0.00 0.00 0.00 33 1015.6
20260906112205 61 326 1.0 4.0 0.00 0.00 0.00 36 1015.6
20260906111207 61 341 1.0 3.0 0.00 0.00 0.00 35 1015.6
20260906105906 61 0 0.0 5.0 0.00 0.00 0.00 35 1015.6
20260906104906 61 334 2.0 5.0 0.00 0.00 0.00 34 1015.6
20260906103906 62 0 0.0 3.0 0.00 0.00 0.00 33 1015.6
20260906102906 62 1 1.0 3.0 0.00 0.00 0.00 30 1015.6
20260906101906 63 0 0.0 0.0 0.00 0.00 0.00 26 1015.6
20260906100906 63 0 0.0 0.0 0.00 0.00 0.00 27 1015.6
20260906095906 63 0 0.0 0.0 0.00 0.00 0.00 26 1015.6
20260906094906 63 0 0.0 0.0 0.00 0.00 0.00 26 1015.6
20260906093906 63 0 0.0 2.0 0.00 0.00 0.00 28 1015.6
20260906092906 63 304 1.0 3.0 0.00 0.00 0.00 26 1015.6
20260906091906 63 0 0.0 1.0 0.00 0.00 0.00 26 1015.7
20260906090906 63 0 0.0 2.0 0.00 0.00 0.00 27 1015.7
20260906085906 63 0 0.0 0.0 0.00 0.00 0.00 28 1015.8
20260906084906 63 0 0.0 3.0 0.00 0.00 0.00 30 1015.9
20260906083906 63 310 1.0 3.0 0.00 0.00 0.00 28 1015.9
20260906082906 62 0 0.0 3.0 0.00 0.00 0.00 30 1016.0
20260906081906 62 0 0.0 0.0 0.00 0.00 0.00 33 1016.0
20260906080906 62 0 0.0 0.0 0.00 0.00 0.00 33 1016.2
20260906075906 62 0 0.0 0.0 0.00 0.00 0.00 32 1016.3
20260906074906 62 0 0.0 2.0 0.00 0.00 0.00 33 1016.3
20260906073906 62 0 0.0 1.0 0.00 0.00 0.00 31 1016.5
20260906072906 62 0 0.0 3.0 0.00 0.00 0.00 33 1016.5
20260906071906 62 268 2.0 4.0 0.00 0.00 0.00 33 1016.5
20260906070906 62 0 0.0 3.0 0.00 0.00 0.00 32 1016.6
20260906065906 62 0 0.0 0.0 0.00 0.00 0.00 31 1016.6
20260906064906 61 0 0.0 2.0 0.00 0.00 0.00 36 1016.7
20260906063906 61 0 0.0 3.0 0.00 0.00 0.00 36 1016.7
20260906062906 62 359 1.0 3.0 0.00 0.00 0.00 37 1016.7
20260906061906 62 0 0.0 2.0 0.00 0.00 0.00 36 1016.7
20260906060906 62 359 1.0 3.0 0.00 0.00 0.00 35 1016.8
20260906055906 62 0 0.0 3.0 0.00 0.00 0.00 34 1016.6
20260906054906 62 359 2.0 4.0 0.00 0.00 0.00 34 1016.6
20260906053906 62 0 0.0 3.0 0.00 0.00 0.00 34 1016.7
20260906052906 62 0 0.0 0.0 0.00 0.00 0.00 33 1016.7
20260906051906 62 0 0.0 0.0 0.00 0.00 0.00 32 1016.7
20260906050906 63 0 0.0 0.0 0.00 0.00 0.00 31 1016.7
20260906045907 63 0 0.0 0.0 0.00 0.00 0.00 30 1016.7
20260906044906 63 0 0.0 0.0 0.00 0.00 0.00 29 1016.7
20260906043907 64 0 0.0 0.0 0.00 0.00 0.00 27 1016.7
20260906042906 63 0 0.0 2.0 0.00 0.00 0.00 28 1016.6
20260906041907 63 0 0.0 2.0 0.00 0.00 0.00 29 1016.7
20260906040906 63 0 0.0 0.0 0.00 0.00 0.00 30 1016.7
20260906035906 63 0 0.0 2.0 0.00 0.00 0.00 28 1016.7
20260906034907 62 0 0.0 2.0 0.00 0.00 0.00 28 1016.5
20260906033906 61 359 1.0 3.0 0.00 0.00 0.00 37 1016.5
20260906032906 60 359 2.0 4.0 0.00 0.00 0.00 43 1016.3
20260906031907 60 351 1.0 5.0 0.00 0.00 0.00 45 1016.2
20260906030906 60 318 1.0 9.0 0.00 0.00 0.00 50 1016.2
20260906025906 60 331 3.0 9.0 0.00 0.00 0.00 51 1016.1
20260906024907 60 338 6.0 11.0 0.00 0.00 0.00 51 1016.0
20260906023906 60 326 6.0 12.0 0.00 0.00 0.00 51 1016.0
20260906022907 60 318 4.0 10.0 0.00 0.00 0.00 51 1015.8
20260906021906 60 322 7.0 12.0 0.00 0.00 0.00 50 1015.8
20260906020906 60 318 9.0 14.0 0.00 0.00 0.00 50 1015.8
20260906015906 60 315 9.0 15.0 0.00 0.00 0.00 49 1015.7
20260906014908 61 315 10.0 16.0 0.00 0.00 0.00 49 1015.8
20260906013906 61 308 12.0 18.0 0.00 0.00 0.00 48 1015.8
20260906012906 61 304 11.0 20.0 0.00 0.00 0.00 47 1015.9
20260906011906 62 306 9.0 16.0 0.00 0.00 0.00 46 1015.9
20260906010906 63 308 10.0 19.0 0.00 0.00 0.00 45 1015.9
20260906005906 63 311 12.0 19.0 0.00 0.00 0.00 42 1016.0
20260906004929 64 298 10.0 18.0 0.00 0.00 0.00 41 1016.0
20260906004907 64 310 8.0 18.0 0.00 0.00 0.00 42 1016.0
20260906003906 64 298 10.0 18.0 0.00 0.00 0.00 41 1016.0
20260906002906 65 305 7.0 14.0 0.00 0.00 0.00 40 1016.0
20260906001907 66 312 8.0 14.0 0.00 0.00 0.00 38 1015.9
20260906000907 66 298 8.0 15.0 0.00 0.00 0.00 39 1015.9
20260905235908 66 319 6.0 19.0 0.00 0.00 0.00 38 1015.8
20260905234906 66 278 6.0 12.0 0.00 0.00 0.00 37 1015.9
20260905233906 66 278 7.0 16.0 0.00 0.00 0.00 39 1015.9
20260905232907 66 291 7.0 17.0 0.00 0.00 0.00 39 1015.8
20260905231906 66 332 7.0 16.0 0.00 0.00 0.00 37 1015.9
20260905230906 67 289 5.0 13.0 0.00 0.00 0.00 38 1015.9
20260905225906 67 302 6.0 10.0 0.00 0.00 0.00 39 1015.9
20260905224906 66 297 4.0 14.0 0.00 0.00 0.00 40 1016.0
20260905223906 66 295 1.0 14.0 0.00 0.00 0.00 37 1016.2
20260905222906 66 276 7.0 19.0 0.00 0.00 0.00 39 1016.2
20260905221906 66 260 6.0 16.0 0.00 0.00 0.00 39 1016.3
20260905220906 66 327 5.0 16.0 0.00 0.00 0.00 40 1016.3
20260905215907 66 262 6.0 17.0 0.00 0.00 0.00 39 1016.4
20260905214906 65 265 9.0 17.0 0.00 0.00 0.00 41 1016.5
20260905213906 65 285 9.0 18.0 0.00 0.00 0.00 41 1016.5
20260905212906 66 276 9.0 18.0 0.00 0.00 0.00 40 1016.7
20260905211908 66 284 9.0 17.0 0.00 0.00 0.00 41 1016.7
20260905210906 65 244 7.0 19.0 0.00 0.00 0.00 41 1016.8
20260905205907 65 268 8.0 18.0 0.00 0.00 0.00 43 1017.0
20260905204906 65 248 9.0 16.0 0.00 0.00 0.00 40 1017.0
20260905203906 65 271 7.0 14.0 0.00 0.00 0.00 40 1017.1
20260905202906 65 258 10.0 18.0 0.00 0.00 0.00 41 1017.2
20260905201909 65 284 10.0 19.0 0.00 0.00 0.00 41 1017.2
20260905200906 65 255 8.0 19.0 0.00 0.00 0.00 43 1017.4
20260905195906 65 265 10.0 15.0 0.00 0.00 0.00 41 1017.4